User: anonymous   Login
Location: Newark
(40.3417°N, 75.9264°W)
Time: 08:09:15
(UTC+00:00)
Language:

PSAT 2 - Orbit

View from above orbital plane
View from above orbital plane
View from above satellite
View from above satellite

Ground track
Ground track

The orbit data is extracted from the following two-line orbital elements,

1 44354U 19036R   20157.17531719 +.00006302 +00000-0 +89041-4 0  9995
2 44354 028.5305 101.2204 0364795 179.8819 180.1898 15.03360461051978
Epoch (UTC): 05 June 2020 04:12:27
Eccentricity: 0.0364795
inclination: 28.5305°
perigee height: 303 km
apogee height: 809 km
right ascension of ascending node: 101.2204°
argument of perigee: 179.8819°
revolutions per day: 15.03360461
mean anomaly at epoch: 180.1898°
orbit number at epoch: 5197

The dashed part of the orbit path shows where the satellite is in the earth's shadow,  

DLR